This demonstration page uses our WeatherBlox Daily Observations layout. Learn more.

Left ArrowRight Arrow

36.17497, -115.13722

Hourly Observations for November 4, 2020

Temp ( °F °C ) Dew Point ( °F °C ) Humidity (%) Winds ( mph kmh ) Pressure ( in mb ) Visibility ( mi km ) Precip ( " mm )
12:53 am 00:53 Clear 72 22.2 30 -1.1 21 21 NNW 12 19 30.05 1018 10 16 0.00 0.00
1:53 am 01:53 Clear 70 21.1 30 -1.1 23 23 N 8 13 30.06 1018 10 16 0.00 0.00
2:53 am 02:53 Clear 69 20.6 29 -1.7 22 22 NW 7 11 30.06 1018 10 16 0.00 0.00
3:53 am 03:53 Clear 63 17.2 30 -1.1 29 29 ENE 5 7 30.09 1019 10 16 0.00 0.00
4:53 am 04:53 Clear 62 16.7 30 -1.1 30 30 Calm 30.12 1020 10 16 0.00 0.00
5:53 am 05:53 Clear 64 17.8 30 -1.1 28 28 NW 7 11 30.14 1021 10 16 0.00 0.00
6:53 am 06:53 Sunny 65 18.3 29 -1.7 26 26 NW 9 15 30.17 1022 10 16 0.00 0.00
7:53 am 07:53 Sunny 69 20.6 32 0 25 25 Calm 30.19 1023 10 16 0.00 0.00
8:53 am 08:53 Sunny 73 22.8 33 0.6 23 23 WSW 3 6 30.20 1023 10 16 0.00 0.00
9:53 am 09:53 Sunny 77 25 32 0 19 19 WSW 3 6 30.20 1023 10 16 0.00 0.00
10:53 am 10:53 Sunny 80 26.7 32 0 17 17 VRB 3 6 30.18 1022 10 16 0.00 0.00
11:53 am 11:53 Sunny 82 27.8 32 0 16 16 SSE 5 7 30.15 1021 10 16 0.00 0.00
12:53 pm 12:53 Sunny 85 29.4 32 0 15 15 E 5 7 30.12 1020 10 16 0.00 0.00
1:53 pm 13:53 Sunny 86 30 32 0 14 14 Calm 30.11 1020 10 16 0.00 0.00
2:53 pm 14:53 Sunny 86 30 32 0 14 14 SE 3 6 30.12 1020 10 16 0.00 0.00
3:53 pm 15:53 Sunny 85 29.4 32 0 15 15 E 3 6 30.13 1020 10 16 0.00 0.00
4:53 pm 16:53 Clear 83 28.3 32 0 16 16 Calm 30.13 1020 10 16 0.00 0.00
5:53 pm 17:53 Clear 78 25.6 35 1.7 21 21 W 5 7 30.16 1021 10 16 0.00 0.00
6:53 pm 18:53 Clear 74 23.3 35 1.7 24 24 WNW 7 11 30.17 1022 10 16 0.00 0.00
7:53 pm 19:53 Clear 73 22.8 34 1.1 24 24 WSW 3 6 30.17 1022 10 16 0.00 0.00
8:53 pm 20:53 Clear 74 23.3 30 -1.1 20 20 NNW 9 15 30.17 1022 10 16 0.00 0.00
9:53 pm 21:53 Clear 76 24.4 29 -1.7 18 18 NNW 9 15 30.18 1022 10 16 0.00 0.00
10:53 pm 22:53 Clear 69 20.6 31 -0.6 24 24 Calm 30.19 1022 10 16 0.00 0.00
11:53 pm 23:53 Clear 68 20 33 0.6 27 27 SSE 5 7 30.19 1022 10 16 0.00 0.00

Powered by AerisWeather